User: anonymous   Login
Location: Home
(42.5358°N, 72.7383°W)
Time: 01:34:29
(UTC-05:00)
Language:

ITUPSAT 1 - Orbit

View from above orbital plane
View from above orbital plane
View from above satellite
View from above satellite

Ground track
Ground track

The orbit data is extracted from the following two-line orbital elements,

1 35935U 09051E   22026.56694993  .00000239  00000-0  65617-4 0  9996
2 35935  98.5883 240.2187 0008824 132.9063 227.2876 14.55832517655234
Epoch (UTC): 26 January 2022 13:36:24
Eccentricity: 0.0008824
inclination: 98.5883°
perigee height: 700 km
apogee height: 713 km
right ascension of ascending node: 240.2187°
argument of perigee: 132.9063°
revolutions per day: 14.55832517
mean anomaly at epoch: 227.2876°
orbit number at epoch: 65523

The dashed part of the orbit path shows where the satellite is in the earth's shadow,  

DLR